This demonstration page uses our WeatherBlox Daily Observations layout. Learn more.

Left ArrowRight Arrow

30.21309, -93.2044

Hourly Observations for May 26, 2022

Temp ( °F °C ) Dew Point ( °F °C ) Humidity (%) Winds ( mph kmh ) Pressure ( in mb ) Visibility ( mi km ) Precip ( " mm )
12:15 am 00:15 Clear 73 22.8 61 16.2 66 66 NW 13 20 29.93 1014 10 16 0.00 0.00
12:35 am 00:35 Clear 72 22.4 61 15.9 67 67 NW 9 15 29.94 1014 10 16 0.00 0.00
12:55 am 00:55 Mostly Cloudy 72 22.2 60 15.7 67 67 NW 10 17 29.93 1014 10 16 0.00 0.00
1:15 am 01:15 Partly Cloudy 71 21.8 60 15.4 67 67 NW 13 20 29.94 1014 10 16 0.00 0.00
1:35 am 01:35 Partly Cloudy 71 21.7 60 15.5 68 68 NW 8 13 29.95 1014 10 16 0.00 0.00
1:55 am 01:55 Mostly Cloudy 71 21.4 60 15.7 70 70 NW 8 13 29.95 1014 10 16 0.00 0.00
2:15 am 02:15 Mostly Cloudy 70 20.9 60 15.6 72 72 NW 9 15 29.95 1014 10 16 0.00 0.00
2:35 am 02:35 Partly Cloudy 68 19.9 60 15.5 76 76 NNW 6 9 29.94 1014 10 16 0.00 0.00
2:55 am 02:55 Clear 67 19.4 60 15.4 78 78 NNW 3 6 29.94 1014 10 16 0.00 0.00
3:15 am 03:15 Clear 65 18.3 59 15.1 82 82 Calm 29.94 1014 10 16 0.00 0.00
3:35 am 03:35 Clear 63 17 59 15 88 88 Calm 29.93 1014 10 16 0.00 0.00
3:55 am 03:55 Clear 60 15.7 57 13.8 89 89 Calm 29.93 1014 10 16 0.00 0.00
4:15 am 04:15 Clear 61 16 57 14.1 89 89 Calm 29.93 1014 10 16 0.00 0.00
4:35 am 04:35 Clear 62 16.8 59 15.1 90 90 Calm 29.93 1014 10 16 0.00 0.00
4:55 am 04:55 Clear 60 15.5 58 14.3 93 93 SE 6 9 29.93 1014 10 16 0.00 0.00
5:15 am 05:15 Clear 60 15.8 59 14.8 94 94 ESE 3 6 29.93 1014 10 16 0.00 0.00
5:35 am 05:35 Clear with Mist and Fog 60 15.3 58 14.4 94 94 S 3 6 29.93 1014 5 8 0.00 0.00
6:00 am 06:00 Mostly Clear 63 17 59 15 88 88 S 6 9 29.94 1014 10 16 0.00 0.00
6:49 am 06:49 Mostly Sunny 63 17 61 16 94 94 Calm 29.95 1014 10 16 0.00 0.00
7:50 am 07:50 Mostly Sunny 68 20 63 17 83 83 S 3 6 29.97 1015 10 16 0.00 0.00
8:55 am 08:55 Mostly Sunny 75 24 63 17 65 65 SSE 6 9 29.98 1015 10 16 0.00 0.00
9:45 am 09:45 Mostly Sunny 81 27 61 16 51 51 S 13 20 29.98 1015 10 16 0.00 0.00
10:50 am 10:50 Mostly Sunny 84 29 61 16 45 45 SW 13 20 29.96 1015 10 16 0.00 0.00
11:55 am 11:55 Mostly Sunny 86 30 52 11 31 31 WSW 15 24 29.97 1015 10 16 0.00 0.00
12:14 pm 12:14 Mostly Sunny 86 30 52 11 31 31 WNW 12 19 29.96 1015 10 16 0.00 0.00
12:55 pm 12:55 Mostly Sunny 88 31 48 9 25 25 W 17 28 29.96 1015 10 16 0.00 0.00
1:45 pm 13:45 Mostly Sunny 88 31 46 8 24 24 NW 13 20 29.94 1014 10 16 0.00 0.00
2:47 pm 14:47 Mostly Sunny 90 32 48 9 24 24 NW 13 20 29.92 1013 10 16 0.00 0.00
3:47 pm 15:47 Mostly Sunny 90 32 48 9 24 24 W 10 17 29.91 1013 10 16 0.00 0.00
4:45 pm 16:45 Mostly Sunny 90 32 48 9 24 24 WNW 14 22 29.89 1012 10 16 0.00 0.00
5:46 pm 17:46 Mostly Sunny 90 32 52 11 27 27 NNW 12 19 29.88 1012 10 16 0.00 0.00
6:55 pm 18:55 Mostly Sunny 88 31 52 11 29 29 NNW 10 17 29.89 1012 10 16 0.00 0.00
7:48 pm 19:48 Mostly Sunny 84 29 54 12 35 35 WNW 6 9 29.90 1013 10 16 0.00 0.00
8:55 pm 20:55 Mostly Clear 79 26 70 21 74 74 SSW 12 19 29.91 1013 10 16 0.00 0.00
9:45 pm 21:45 Mostly Clear 79 26 68 20 70 70 SW 9 15 29.93 1014 10 16 0.00 0.00
10:15 pm 22:15 Clear 77 25.1 67 19.6 72 72 SW 9 15 29.94 1014 10 16 0.00 0.00
10:35 pm 22:35 Clear 77 25.1 67 19.5 71 71 SW 8 13 29.95 1014 10 16 0.00 0.00
10:55 pm 22:55 Clear 77 24.9 67 19.7 73 73 SW 8 13 29.95 1014 10 16 0.00 0.00
11:15 pm 23:15 Clear 77 25 68 20.1 74 74 SW 9 15 29.95 1014 10 16 0.00 0.00
11:35 pm 23:35 Clear 77 24.9 68 20.1 75 75 SW 8 13 29.95 1014 10 16 0.00 0.00
11:55 pm 23:55 Clear 77 24.9 68 19.9 74 74 SW 9 15 29.95 1014 10 16 0.00 0.00

Powered by AerisWeather